SAFIR 2

Satellite information

Favourite Embed

Satellite Type and Status

PAYLOADIN ORBIT

Key statistics

Satellite SAFIR 2 at a glance.

Uptime

9799

Days in orbit

Revolutions

≈ 14.3

Per day

Orbit

SSO

Sun Synchronous Orbit

Inclination

98.9

Latest

Satellite identification and parameters

Extended collection of information and parameters for SAFIR 2.

Object identification

Identified? True

Debris? False

Object name: SAFIR 2

International designator: 1998-043F

Object number (NORAD): 25399

Object ID (CCSDS): 25399

Country: GERMANY (GER)

Current information (Y/N): Y

RCS size: MEDIUM

Orbital parameters

Period: 101.02 minutes

Inclination: 98.9318 deg

SMA: 7185.071 km

Apoapsis: 808.116 km

Periapsis: 805.756 km

RAAN: 101.3926 deg

Eccentricy: 0.0001642

Argument of periapsis: 164.5074 deg

Mean anomaly: 195.6155 deg

Mean motion: 14.25463672 rev/day

Mean motion (dot): 0.0000015 rev/day2

B* drag term: 0.000082996 1/REarth

Two-line elements (TLE)

Creation date: May 8, 2025, 3:01 a.m.

Reference frame: TEME

Reference center: EARTH

Epoch: May 7, 2025, 8:48 p.m. UTC

TLE line 0: 0 SAFIR 2

TLE line 1: 1 25399U 98043F 25127.86688673 .00000150 00000-0 82996-4 0 9995

TLE line 2: 2 25399 98.9318 101.3926 0001642 164.5074 195.6155 14.25463672393580

Live tracking on map

Real-time ground track for satellite SAFIR 2.

In-orbit conjunctions

A list of the most updated potential collisions computed for object SAFIR 2.

Target Orbit TCA Probability of collision Miss distance Type
CZ-6A DEB LEO 2025-04-10 06:20:17 0.001213255 42.0 (m) DEBRIS
CZ-6A DEB LEO 2025-04-10 04:39:12 0.0003818049 921.0 (m) DEBRIS
CZ-6A DEB LEO 2025-04-03 21:01:51 0.0001769416 574.0 (m) DEBRIS
NOAA 16 DEB SSO 2025-02-06 06:15:52 0.0002547264 246.0 (m) DEBRIS
NOAA 16 DEB SSO 2025-01-06 13:14:26 0.0001080864 850.0 (m) DEBRIS

Associated space launch

Resurs-O1 N4 or Resurs-O1 2 is the fourth earth observation satellite in the Russian Resurs-O1 program.

SAFIR 2 was lifted into orbit during the mission ‘Zenit-2 | Resurs-O1’, on board a Zenit-2 space rocket.

The launch took place on July 10, 1998, 6:30 a.m. from 45/1.

For more information about the launch, click the button.

Launch to space Zenit-2 | Resurs-O1
Zenit-2 | Resurs-O1

Agency: N/A

Status: Launch Successful

Launch date: July 10, 1998, 6:30 a.m. UTC

Rocket: Zenit-2

Launch pad: 45/1

Location: Baikonur Cosmodrome, Republic of Kazakhstan

...

Latest news about this satellite

There are no fresh news available about this satellite. Check back as we update our databases every day.


Newsletter sign-up

Weekly statistics, charts and insights to help you stay on top of the space industry.